Regional Weather Roundup
Issued by NWS

Home | Current Version | Previous Version | Graphics & Text | Print | Product List | Glossary On
Versions: 1 2 3 4 5 6 7 8 9 10 11 12 13 14 15 16 17 18 19 20 21 22 23 24 25 26 27 28 29 30 31 32 33 34 35 36 37 38 39 40 41 42 43 44 45 46 47 48 49 50
000
ASUS43 KLOT 020500
RWRIL

ILLINOIS REGIONAL WEATHER ROUNDUP
NATIONAL WEATHER SERVICE CHICAGO/ROMEOVILLE IL
1100 PM CST SUN MAR 01 2015

NOTE: "FAIR" INDICATES FEW OR NO CLOUDS BELOW 12,000 FEET WITH NO
SIGNIFICANT WEATHER AND/OR OBSTRUCTIONS TO VISIBILITY.

* THESE STATIONS ARE NOT UNDER NWS QUALITY CONTROL. THEY ALSO MAY NOT
  REPORT WEATHER SUCH AS PRECIPITATION OR FOG.

ILZ001-002-007-009-015-016-024-020600-
NORTHWEST ILLINOIS

CITY           SKY/WX    TMP DP  RH WIND       PRES   REMARKS
MOLINE         MOCLDY    14   5  67 CALM      30.43R
STERLING*      PTCLDY    12   7  79 W6        30.40R WCI   3
$$

ILZ003-004-008-010-011-017-018-020600-
NORTH CENTRAL ILLINOIS

CITY           SKY/WX    TMP DP  RH WIND       PRES   REMARKS
ROCKFORD       CLEAR     17   7  64 W8        30.37S WCI   7
$$

ILZ005-006-012>014-019>023-020600-
NORTHEAST ILLINOIS

CITY           SKY/WX    TMP DP  RH WIND       PRES   REMARKS
CHICAGO-OHARE  CLEAR     19  10  68 W13       30.34R WCI   6
CHICAGO-MIDWAY CLEAR     21  13  71 W12       30.35R WCI   9
AURORA         CLEAR     16   8  71 W13       30.37R WCI   2
WAUKEGAN       CLEAR     19   8  62 W7        30.31R WCI  10
DUPAGE AIRPORT CLEAR     18   9  68 W13       30.34R WCI   5
WHEELING       CLEAR     20   8  60 NW13      30.35R WCI   7
NORTHERLY ISL    N/A     22  14  71 W14         N/A  WCI   9
$$

LMZ740>746-020600-
SOUTHERN LAKE MICHIGAN

STATION/POSITION SKY/WX   TEMP    WIND        PRES    VSBY  WAVE
                          AIR SEA DIR/SP/G                  HT/PER
                          (F)     (DEG/KT/KT) (MB)    (MI)  (FT/S)
WAUKEGAN HARBOR            21     280/ 13/ 20   N/A
HARRISON CRIB              22     270/ 21/ 25   N/A
BURNHAM HARBOR             21     290/ 10/ 14   N/A
CALUMET HARBOR             21     240/  6/ 10 1026.1R
MICHIGAN CITY              19     210/ 14/ 15   N/A
$$

ILZ025>027-034>036-040-047-049-050-058-095>099-020600-
WEST-CENTRAL ILLINOIS

CITY           SKY/WX    TMP DP  RH WIND       PRES   REMARKS
QUINCY         CLOUDY    23  17  78 W5        30.47R WCI  17
$$

ILZ028>032-037-038-041>044-048-051>054-059>061-020600-
CENTRAL ILLINOIS

CITY           SKY/WX    TMP DP  RH WIND       PRES   REMARKS
DECATUR        MOCLDY    22  16  78 W6        30.44S WCI  14
PEORIA         MOCLDY    21  14  74 W6        30.45R WCI  13
SPRINGFIELD    MOCLDY    17  13  84 W7        30.47R WCI   8
TAYLORVILLE    NOT AVBL
$$

ILZ033-039-045-046-055>057-062-063-020600-
EAST-CENTRAL ILLINOIS

CITY           SKY/WX    TMP DP  RH WIND       PRES   REMARKS
CHAMPAIGN      MOCLDY    14  11  87 W7        30.42S WCI   4
MATTOON        MOCLDY    20  16  84 NW10      30.43R WCI   9
$$

ILZ079-100>102-020600-
SOUTHWEST ILLINOIS

CITY           SKY/WX    TMP DP  RH WIND       PRES   REMARKS
BELLEVILLE     PTCLDY    18  18  99 NW2       30.48R FOG
CAHOKIA*       PTCLDY    21  18  88 W3        30.50R
$$

ILZ064>066-069>071-074>076-080>082-084>086-088>090-092>094-020600-
SOUTH-CENTRAL ILLINOIS

CITY           SKY/WX    TMP DP  RH WIND       PRES   REMARKS
CARBONDALE     MOCLDY    30  25  81 NW6       30.47R WCI  24
MT. VERNON     PTCLDY    21  16  79 CALM      30.47S
$$

ILZ067-068-072-073-078-083-087-091-020600-
SOUTHEAST ILLINOIS

CITY           SKY/WX    TMP DP  RH WIND       PRES   REMARKS
LAWRENCEVILLE  PTCLDY    26  21  81 NW7       30.46R WCI  18
$$

ABBREVIATIONS USED IN REMARKS
   TC - TEMPERATURE IN CELSIUS
  WCI - WIND CHILL INDEX
   HX - HEAT INDEX
  VSB - VISIBILITY
$$



USA.gov is the U.S. government's official web portal to all federal, state and local government web resources and services.